Weather History for Hilton Head Island, SC

Change the Weather History Date:

Saturday, October 6, 2012

  Actual Average Record
Temperature  
Mean Temperature 74 °F -  
Max Temperature 80 °F 81 °F 97 °F (1986)
Min Temperature 69 °F 60 °F 45 °F (1979)
Cooling Degree Days 10    
Growing Degree Days 24 (Base 50)    
Moisture  
Dew Point 72 °F    
Average Humidity 95    
Maximum Humidity 100    
Minimum Humidity 74    
Precipitation  
Precipitation 0.00 in - - ()
Sea Level Pressure  
Sea Level Pressure 29.99 in    
Wind  
Wind Speed 1 mph (SSE)    
Max Wind Speed 8 mph    
Max Gust Speed -    
Visibility 9 miles    
Events Rain    
Averages and records for this station are not official NWS values.
T = Trace of Precipitation, MM = Missing Value Source: NWS Daily Summary

Daily Weather History Graph

Daily Weather History Graph

Search for Another Location

Airport:

Trip Planner

Search our weather history database for the weather conditions in past years. The results will help you decide how hot, cold, wet, or windy it might be!

Date:

Astronomy

Oct. 06, 2012 Rise Set
Actual Time 7:20 AM EDT 7:00 PM EDT
Civil Twilight 6:55 AM EDT 7:25 PM EDT
Nautical Twilight 6:27 AM EDT 7:53 PM EDT
Astronomical Twilight 5:59 AM EDT 8:21 PM EDT
Moon 11:29 PM EDT (10/6) 12:58 PM EDT (10/6)
Length of Visible Light 12h 29m
Length of Day
11h 40m
Waning Gibbous, 65% of the Moon is Illuminated
Oct 6
Waning Gibbous
Oct 8
Last Quarter
Oct 15
New
Oct 21
First Quarter
Oct 29
Full

Hourly Weather History & Observations

Time (EDT) Temp. Heat Index Dew Point Humidity Pressure Visibility Wind Dir Wind Speed Gust Speed Precip Events Conditions
12:15 AM 71.6 °F - 69.8 °F 94% 30.04 in 10.0 mi Calm Calm - 0.00 in   Clear
12:35 AM 71.6 °F - 69.8 °F 94% 30.04 in 10.0 mi Calm Calm - 0.00 in   Clear
12:55 AM 69.8 °F - 69.8 °F 100% 30.03 in 10.0 mi Calm Calm - 0.00 in   Clear
1:15 AM 69.8 °F - 69.8 °F 100% 30.03 in 9.0 mi Calm Calm - 0.00 in   Clear
1:35 AM 69.8 °F - 69.8 °F 100% 30.03 in 9.0 mi Calm Calm - 0.00 in   Clear
1:55 AM 69.8 °F - 69.8 °F 100% 30.03 in 9.0 mi Calm Calm - 0.00 in   Clear
2:15 AM 69.8 °F - 69.8 °F 100% 30.02 in 9.0 mi Calm Calm - 0.00 in   Clear
2:35 AM 69.8 °F - 69.8 °F 100% 30.02 in 8.0 mi Calm Calm - 0.00 in   Clear
2:55 AM 69.8 °F - 69.8 °F 100% 30.01 in 8.0 mi Calm Calm - 0.00 in   Clear
3:15 AM 69.8 °F - 69.8 °F 100% 30.01 in 7.0 mi Calm Calm - 0.00 in   Clear
3:35 AM 69.8 °F - 69.8 °F 100% 30.01 in 8.0 mi Calm Calm - 0.00 in   Partly Cloudy
3:55 AM 69.8 °F - 69.8 °F 100% 30.01 in 8.0 mi Calm Calm - 0.00 in   Mostly Cloudy
4:15 AM 71.6 °F - 71.6 °F 100% 30.00 in 7.0 mi Calm Calm - 0.00 in   Scattered Clouds
4:35 AM 71.6 °F - 71.6 °F 100% 30.00 in 9.0 mi Calm Calm - 0.00 in   Scattered Clouds
4:55 AM 71.6 °F - 71.6 °F 100% 29.99 in 8.0 mi Calm Calm - 0.00 in   Partly Cloudy
5:35 AM 71.6 °F - 71.6 °F 100% 29.99 in 6.0 mi Calm Calm - 0.00 in   Partly Cloudy
5:55 AM 71.6 °F - 71.6 °F 100% 29.99 in 7.0 mi Calm Calm - 0.00 in   Clear
6:15 AM 71.6 °F - 71.6 °F 100% 29.99 in 5.0 mi Calm Calm - 0.00 in   Clear
6:35 AM 71.6 °F - 71.6 °F 100% 29.99 in 4.0 mi Calm Calm - 0.00 in   Clear
6:50 AM 71.6 °F - 71.6 °F 100% 29.99 in 5.0 mi Calm Calm - N/A   Clear
7:50 AM 71.6 °F - 71.6 °F 100% 30.01 in 4.0 mi Calm Calm - N/A   Clear
8:50 AM 75.2 °F - 75.2 °F 100% 30.02 in 8.0 mi Calm Calm - N/A   Mostly Cloudy
9:50 AM 75.2 °F - 73.4 °F 94% 30.02 in 9.0 mi Calm Calm - N/A   Scattered Clouds
10:50 AM 78.8 °F - 73.4 °F 83% 30.02 in 10.0 mi NNW 5.8 mph - N/A   Mostly Cloudy
11:50 AM 80.6 °F 85.4 °F 73.4 °F 79% 30.01 in 10.0 mi North 8.1 mph - N/A   Mostly Cloudy
12:50 PM 80.6 °F 85.4 °F 73.4 °F 79% 30.00 in 10.0 mi North 8.1 mph - N/A   Mostly Cloudy
1:50 PM 80.6 °F 85.4 °F 73.4 °F 79% 29.97 in 10.0 mi NNE 8.1 mph - N/A   Mostly Cloudy
2:50 PM 77.0 °F - 75.2 °F 94% 29.96 in 5.0 mi SSE 4.6 mph - N/A Rain Light Rain
3:50 PM 80.6 °F 84.6 °F 71.6 °F 74% 29.94 in 10.0 mi SSE 3.5 mph - N/A   Partly Cloudy
4:50 PM 80.6 °F 85.4 °F 73.4 °F 79% 29.92 in 10.0 mi SSE 4.6 mph - N/A   Partly Cloudy
5:50 PM 80.6 °F 85.4 °F 73.4 °F 79% 29.93 in 10.0 mi South 4.6 mph - N/A   Clear
7:50 PM 75.2 °F - 73.4 °F 94% 29.95 in 10.0 mi Calm Calm - N/A   Clear
9:15 PM 75.2 °F - 73.4 °F 94% 29.97 in 10.0 mi South 3.5 mph - 0.00 in   Clear
9:35 PM 75.2 °F - 73.4 °F 94% 29.97 in 10.0 mi South 4.6 mph - 0.00 in   Clear
9:55 PM 75.2 °F - 73.4 °F 94% 29.97 in 10.0 mi South 4.6 mph - 0.00 in   Clear
10:15 PM 75.2 °F - 73.4 °F 94% 29.98 in 10.0 mi South 4.6 mph - 0.00 in   Clear
10:35 PM 75.2 °F - 73.4 °F 94% 29.98 in 10.0 mi South 4.6 mph - 0.00 in   Clear
10:55 PM 73.4 °F - 73.4 °F 100% 29.98 in 10.0 mi Calm Calm - 0.00 in   Clear
11:15 PM 73.4 °F - 73.4 °F 100% 29.98 in 10.0 mi South 3.5 mph - 0.00 in   Clear
11:35 PM 73.4 °F - 73.4 °F 100% 29.97 in 10.0 mi South 4.6 mph - 0.00 in   Clear